Regional Weather Roundup
Issued by NWS Kansas City/Pleasant Hill, MO

Home | Current Version | Previous Version | Graphics & Text | Print | Product List | Glossary Off
Versions: 1 2 3 4 5 6 7 8 9 10 11 12 13 14 15 16 17 18 19 20 21 22 23 24 25 26 27 28 29 30 31 32 33 34 35 36 37 38 39 40 41 42 43 44 45 46 47 48 49 50

092
ASUS43 KEAX 222310
RWREAX

WEATHER ROUNDUP FOR EASTERN KANSAS AND NORTHWEST MISSOURI
NATIONAL WEATHER SERVICE KANSAS CITY/PLEASANT HILL MO
600 PM CDT SUN OCT 22 2017

KSZ040-057-103>105-MOZ028-029-037-043-230000-
...KANSAS CITY METROPOLITAN AREA...

CITY           SKY/WX    TMP DP  RH WIND       PRES   REMARKS
K.C. INTL      PTCLDY    61  42  49 SE7       30.09S
K.C. DOWNTOWN  CLEAR     66  37  34 CALM      30.09S
LEES SUMMIT    PTCLDY    62  39  42 N5        30.10S
OLATHE - IXD   CLEAR     62  41  46 N3        30.10S
OLATHE - OJC   CLEAR     63  36  36 CALM      30.10S
LAWRENCE       CLEAR     64  39  39 NW3       30.09S

$$

MOZ001>008-011>017-020>025-030>033-038>040-044>046-053-054-230000-
...NORTHERN AND CENTRAL MISSOURI...

CITY           SKY/WX    TMP DP  RH WIND       PRES   REMARKS
ST. JOSEPH     CLEAR     65  35  33 CALM      30.07F HAZE
MOSBY          CLEAR     63  39  42 CALM      30.09F
WARRENSBURG    CLOUDY    59  41  51 NW5       30.10S
WHITEMAN AFB   CLOUDY    59  49  70 CALM      30.06F
CLINTON        CLOUDY    59  50  72 CALM      30.11S
SEDALIA        CLOUDY    56  53  90 W3        30.11F
WARSAW         NOT AVBL
CHILLICOTHE      N/A     60  46  59 CALM      30.10S
KIRKSVILLE     CLOUDY    54  51  90 CALM      30.10R

$$

MOZ041-047>049-056>058-063>065-088>090-097-230000-
...EASTERN AND SOUTHERN MISSOURI...

CITY           SKY/WX    TMP DP  RH WIND       PRES   REMARKS
ST. LOUIS INTL LGT RAIN  55  51  86 NW8       30.04S FOG
SPIRIT OF STL  LGT RAIN  56  50  80 N6        30.05R
COLUMBIA       CLOUDY    53  51  93 NW6       30.08F
JEFFERSON CITY CLOUDY    54  50  86 NW3       30.08F
ROLLA          LGT RAIN  50  50 100 NW9       30.07F
OSAGE BEACH    LGT RAIN  51  50  96 CALM      30.10F
SPRINGFIELD    CLOUDY    52  50  93 NW6       30.09F
BRANSON        CLOUDY    50  48  93 NW5       30.11S
JOPLIN         PTCLDY    61  46  57 CALM      30.11S
WEST PLAINS    LGT RAIN  53  51  93 N8        30.05F

$$

IAZ060-094-KSZ022-034>040-054-083-096-NEZ052-066-093-230000-
...KANSAS...SOUTHEAST NEBRASKA AND IOWA...

CITY           SKY/WX    TMP DP  RH WIND       PRES   REMARKS
TOPEKA         CLEAR     67  35  30 SW5       30.08F
MANHATTAN      CLEAR     65  38  36 S5        30.06F
EMPORIA        CLEAR     66  32  28 CALM      30.10F
CHANUTE        CLEAR     65  38  36 NW3       30.11F
WICHITA        PTCLDY    66  37  34 S3        30.09F
OMAHA          PTCLDY    68  29  23 S9        30.01S
LINCOLN        CLEAR     68  27  21 SW7       30.02S
FALLS CITY     CLEAR     66  30  26 SW6       30.05F
LAMONI         PTCLDY    61  38  42 SE3       30.07S
DES MOINES     CLOUDY    66  29  24 CALM      30.03F

$$





USA.gov is the U.S. government's official web portal to all federal, state and local government web resources and services.